Terminal Aerodrome Forecast
Issued by NWS

Home | Current Version | Previous Version | Text Only | Print | Product List | Glossary On
Versions: 1 2 3 4 5 6 7 8 9 10 11 12 13 14
000
FTUS42 KMLB 211026 AAA
TAFFPR
TAF AMD
KFPR 211026Z 2110/2206 00000KT 1SM BR SCT004
      TEMPO 2110/2113 1/4SM FG VV004
     FM211400 20008KT P6SM FEW010 SCT250
     FM211800 18014KT P6SM SCT040 BKN250
     FM220000 20006KT P6SM BKN250=

USA.gov is the U.S. government's official web portal to all federal, state and local government web resources and services.